Location: Albany
(35.0170°S, 117.8920°E)
Time: 10:06:16
(UTC+08:00)

S-56A Canister/Altair - Pass Details

Date: 24 January 2021
Orbit: 632 x 2501 km, 38.9° (Epoch: 25 February)

Event Time Altitude Azimuth Distance (km) Brightness Sun altitude
Rises 17:54:22 0° 255° (WSW) 6,178 14.0 16.0°
Reaches altitude 10° 17:58:26 10° 254° (WSW) 5,179 14.7 15.2°
Maximum altitude 18:13:43 86° 163° (SSE) 2,243 10.1 12.2°
Drops below altitude 10° 18:25:18 10° 74° (ENE) 4,056 10.6 9.9°
Sets 18:28:06 0° 73° (ENE) 4,823 10.9 9.3°
